sat.trackr.live / text

‹ back to catalog

STARLINK-11484 [DTC]

NORAD 62277 · 2024-237L

PAYLOAD ACTIVE UNKNOWN

§ Identity

Operator
Country
US
Launch date
2024-12-08
Launch site
AFETR
Launch vehicle
Mass (kg)
RCS (m²)

Purposes: comms

External: N2YO · Heavens-Above · Gunter

§ Orbital elements

Epoch: 2026-05-25T04:43:56.282880Z

Period
91.67 min
Inclination
42.9988°
Eccentricity
0.0000485
Mean motion
15.70888732 rev/d
Perigee alt
356.0 km
Apogee alt
356.7 km
Semi-major
6,734.5 km
B*
1.6292e-3
RAAN
315.5587°
Arg perigee
65.3699°
Mean anomaly
294.7219°
Rev number
8,508

§ Raw data

STARLINK-11484 [DTC]1 62277U 24237L   26145.19717920  .00214525  00000+0  16292-2 0  99962 62277  42.9988 315.5587 0000485  65.3699 294.7219 15.70888732 85089

JSON: /api/v1/satellites/62277 · /tle

For live sub-satellite position, see the globe view (requires WebGL).

§ Visibility from observer

Set your observer location to see the next 7 days of passes ≥ 10°. The values pass through the URL so the page stays shareable.

No JS? Fill the form by hand. The geolocation button needs JavaScript.